11-11-2023, 00:00:03,    273,    0.0,    2.0,   0.00,   0.00, 1003.4,    0.1, -999.0
11-11-2023, 00:00:13,    274,    0.0,    2.0,   0.00,   0.00, 1003.4,    0.0, -999.0
11-11-2023, 00:00:23,    274,    0.4,    2.0,   0.00,   0.00, 1003.5,    0.2, -999.0
11-11-2023, 00:00:33,    273,    0.1,    2.0,   0.00,   0.00, 1003.5,    0.2, -999.0
11-11-2023, 00:00:43,    273,    0.0,    2.0,   0.00,   0.00, 1003.4,    0.4, -999.0
11-11-2023, 00:00:53,    273,    0.0,    1.9,   0.00,   0.00, 1003.4,    0.4, -999.0
11-11-2023, 00:01:03,    273,    0.0,    2.0,   0.00,   0.00, 1003.4,    0.3, -999.0
11-11-2023, 00:01:13,    273,    0.9,    2.0,   0.00,   0.00, 1003.5,    0.5, -999.0
11-11-2023, 00:01:23,    273,    1.2,    2.1,   0.00,   0.00, 1003.5,    0.0, -999.0
11-11-2023, 00:01:32,    271,    1.4,    2.1,   0.00,   0.00, 1003.5,    0.2, -999.0
11-11-2023, 00:01:43,    272,    1.2,    2.1,   0.00,   0.00, 1003.5,    0.2, -999.0
11-11-2023, 00:01:53,    272,    0.8,    2.1,   0.00,   0.00, 1003.5,    0.2, -999.0
11-11-2023, 00:02:03,    272,    0.5,    2.0,   0.00,   0.00, 1003.5,    0.5, -999.0
11-11-2023, 00:02:12,    272,    0.0,    1.9,   0.00,   0.00, 1003.4,    0.2, -999.0
11-11-2023, 00:02:23,    272,    0.0,    1.9,   0.00,   0.00, 1003.4,    0.2, -999.0
11-11-2023, 00:02:33,    271,    0.0,    1.9,   0.00,   0.00, 1003.4,    0.2, -999.0
11-11-2023, 00:02:42,    272,    0.0,    2.0,   0.00,   0.00, 1003.4,    0.5, -999.0
11-11-2023, 00:02:53,    272,    0.1,    2.0,   0.00,   0.00, 1003.4,    0.4, -999.0
11-11-2023, 00:03:03,    272,    0.0,    2.0,   0.00,   0.00, 1003.4,    0.2, -999.0
11-11-2023, 00:03:12,    272,    0.0,    1.9,   0.00,   0.00, 1003.4,    0.3, -999.0
11-11-2023, 00:03:22,    272,    0.0,    1.9,   0.00,   0.00, 1003.3,    0.3, -999.0
11-11-2023, 00:03:33,    272,    0.0,    2.0,   0.00,   0.00, 1003.4,    0.2, -999.0
11-11-2023, 00:03:42,    272,    0.0,    1.9,   0.00,   0.00, 1003.4,    0.4, -999.0
11-11-2023, 00:03:52,    272,    0.0,    1.9,   0.00,   0.00, 1003.4,    0.1, -999.0
11-11-2023, 00:04:02,    272,    0.0,    1.9,   0.00,   0.00, 1003.4,    0.3, -999.0
11-11-2023, 00:04:13,    270,    0.0,    1.9,   0.00,   0.00, 1003.4,    0.2, -999.0
11-11-2023, 00:04:22,    271,    0.0,    1.9,   0.00,   0.00, 1003.4,    0.2, -999.0
11-11-2023, 00:04:32,    272,    0.0,    2.0,   0.00,   0.00, 1003.4,    0.2, -999.0
11-11-2023, 00:04:42,    272,    0.8,    1.9,   0.00,   0.00, 1003.5,    0.4, -999.0
11-11-2023, 00:04:52,    272,    0.4,    2.0,   0.00,   0.00, 1003.5,    0.4, -999.0
11-11-2023, 00:05:02,    272,    0.3,    2.0,   0.00,   0.00, 1003.5,    0.2, -999.0
11-11-2023, 00:05:12,    272,    0.5,    2.1,   0.00,   0.00, 1003.5,    0.2, -999.0
11-11-2023, 00:05:22,    272,    0.2,    2.0,   0.00,   0.00, 1003.5,    0.3, -999.0
11-11-2023, 00:05:32,    272,    0.0,    1.9,   0.00,   0.00, 1003.4,    0.1, -999.0
11-11-2023, 00:05:42,    272,    0.0,    1.9,   0.00,   0.00, 1003.4,    0.4, -999.0
11-11-2023, 00:05:52,    271,    0.0,    1.9,   0.00,   0.00, 1003.4,    0.4, -999.0
11-11-2023, 00:06:02,    272,    0.0,    2.0,   0.00,   0.00, 1003.4,    0.2, -999.0
11-11-2023, 00:06:12,    272,    0.0,    1.9,   0.00,   0.00, 1003.4,    0.2, -999.0
11-11-2023, 00:06:22,    272,    0.0,    1.9,   0.00,   0.00, 1003.4,    0.3, -999.0
11-11-2023, 00:06:32,    272,    0.0,    1.9,   0.00,   0.00, 1003.4,    0.2, -999.0
11-11-2023, 00:06:42,    272,    0.0,    2.0,   0.00,   0.00, 1003.4,    0.2, -999.0
11-11-2023, 00:06:52,    272,    0.0,    2.0,   0.00,   0.00, 1003.4,    0.4, -999.0
11-11-2023, 00:07:02,    273,    0.0,    1.9,   0.00,   0.00, 1003.4,    0.4, -999.0
11-11-2023, 00:07:12,    272,    0.0,    1.9,   0.00,   0.00, 1003.3,    0.2, -999.0
11-11-2023, 00:07:22,    272,    0.0,    2.0,   0.00,   0.00, 1003.4,    0.2, -999.0
11-11-2023, 00:07:32,    272,    0.0,    2.0,   0.00,   0.00, 1003.3,    0.2, -999.0
11-11-2023, 00:07:42,    271,    0.0,    2.0,   0.00,   0.00, 1003.3,    0.2, -999.0
11-11-2023, 00:07:52,    272,    0.0,    2.0,   0.00,   0.00, 1003.4,    0.3, -999.0
11-11-2023, 00:08:02,    272,    0.0,    1.9,   0.00,   0.00, 1003.3,    0.2, -999.0
11-11-2023, 00:08:12,    272,    0.0,    2.0,   0.00,   0.00, 1003.4,    0.3, -999.0
11-11-2023, 00:08:22,    272,    0.0,    2.0,   0.00,   0.00, 1003.3,    0.3, -999.0
11-11-2023, 00:08:31,    272,    0.0,    2.0,   0.00,   0.00, 1003.4,    0.3, -999.0
11-11-2023, 00:08:42,    272,    0.0,    1.9,   0.00,   0.00, 1003.4,    0.2, -999.0
11-11-2023, 00:08:52,    274,    0.0,    2.1,   0.00,   0.00, 1003.4,    0.4, -999.0
11-11-2023, 00:09:02,    276,    0.2,    1.9,   0.00,   0.00, 1003.4,    0.5, -999.0
11-11-2023, 00:09:11,    276,    0.0,    1.9,   0.00,   0.00, 1003.3,    0.2, -999.0
11-11-2023, 00:09:22,    276,    0.0,    1.9,   0.00,   0.00, 1003.4,    0.2, -999.0
11-11-2023, 00:09:32,    275,    0.0,    2.0,   0.00,   0.00, 1003.3,    0.2, -999.0
11-11-2023, 00:09:41,    276,    0.0,    1.9,   0.00,   0.00, 1003.3,    0.1, -999.0
11-11-2023, 00:09:51,    275,    0.0,    2.0,   0.00,   0.00, 1003.4,    0.3, -999.0
11-11-2023, 00:10:02,    276,    0.0,    1.9,   0.00,   0.00, 1003.4,    0.2, -999.0
11-11-2023, 00:10:11,    275,    0.0,    1.9,   0.00,   0.00, 1003.3,    0.3, -999.0
11-11-2023, 00:10:21,    275,    0.0,    2.0,   0.00,   0.00, 1003.3,    0.3, -999.0
11-11-2023, 00:10:31,    274,    0.0,    1.9,   0.00,   0.00, 1003.3,    0.2, -999.0
11-11-2023, 00:10:41,    275,    0.3,    2.0,   0.00,   0.00, 1003.4,    0.3, -999.0
11-11-2023, 00:10:51,    275,    0.0,    1.9,   0.00,   0.00, 1003.4,    0.3, -999.0
11-11-2023, 00:11:01,    275,    0.0,    2.0,   0.00,   0.00, 1003.3,    0.2, -999.0
11-11-2023, 00:11:12,    275,    0.0,    1.9,   0.00,   0.00, 1003.3,    0.3, -999.0
11-11-2023, 00:11:21,    275,    0.0,    2.0,   0.00,   0.00, 1003.3,    0.0, -999.0
11-11-2023, 00:11:31,    275,    0.0,    2.0,   0.00,   0.00, 1003.3,    0.3, -999.0
11-11-2023, 00:11:41,    275,    0.0,    1.9,   0.00,   0.00, 1003.3,    0.0, -999.0
11-11-2023, 00:11:51,    275,    0.0,    1.8,   0.00,   0.00, 1003.3,    0.4, -999.0
11-11-2023, 00:12:01,    275,    0.0,    2.0,   0.00,   0.00, 1003.3,    0.0, -999.0
11-11-2023, 00:12:11,    275,    0.0,    2.0,   0.00,   0.00, 1003.4,    0.1, -999.0
11-11-2023, 00:12:21,    275,    0.0,    2.0,   0.00,   0.00, 1003.3,    0.0, -999.0
11-11-2023, 00:12:31,    276,    0.0,    1.9,   0.00,   0.00, 1003.3,    0.0, -999.0
11-11-2023, 00:12:41,    275,    0.0,    2.0,   0.00,   0.00, 1003.3,    0.2, -999.0
11-11-2023, 00:12:51,    275,    0.0,    2.0,   0.00,   0.00, 1003.3,    0.2, -999.0
11-11-2023, 00:13:01,    267,    0.4,    2.0,   0.00,   0.00, 1003.4,    0.3, -999.0
11-11-2023, 00:13:11,    266,    1.4,    2.1,   0.00,   0.00, 1003.5,    0.3, -999.0
11-11-2023, 00:13:21,    266,    0.5,    2.1,   0.00,   0.00, 1003.5,    0.4, -999.0
11-11-2023, 00:13:31,    265,    0.3,    2.1,   0.00,   0.00, 1003.5,    0.3, -999.0
11-11-2023, 00:13:41,    266,    0.0,    2.0,   0.00,   0.00, 1003.3,    0.6, -999.0
11-11-2023, 00:13:51,    265,    0.0,    2.0,   0.00,   0.00, 1003.3,    0.5, -999.0
11-11-2023, 00:14:01,    266,    0.0,    2.0,   0.00,   0.00, 1003.3,    0.4, -999.0
11-11-2023, 00:14:11,    266,    0.0,    2.0,   0.00,   0.00, 1003.3,    0.5, -999.0
11-11-2023, 00:14:21,    265,    0.0,    2.0,   0.00,   0.00, 1003.4,    0.1, -999.0
11-11-2023, 00:14:31,    266,    0.0,    1.9,   0.00,   0.00, 1003.3,    0.4, -999.0
11-11-2023, 00:14:41,    265,    0.0,    2.0,   0.00,   0.00, 1003.4,    0.0, -999.0
11-11-2023, 00:14:51,    265,    0.0,    2.0,   0.00,   0.00, 1003.4,    0.1, -999.0
11-11-2023, 00:15:01,    265,    0.0,    1.9,   0.00,   0.00, 1003.4,    0.1, -999.0
11-11-2023, 00:15:11,    266,    0.0,    2.0,   0.00,   0.00, 1003.3,    0.4, -999.0
11-11-2023, 00:15:21,    265,    0.0,    1.9,   0.00,   0.00, 1003.3,    0.1, -999.0
11-11-2023, 00:15:31,    266,    0.0,    2.0,   0.00,   0.00, 1003.3,    0.5, -999.0
11-11-2023, 00:15:40,    265,    0.0,    1.9,   0.00,   0.00, 1003.4,    0.3, -999.0
11-11-2023, 00:15:51,    265,    0.0,    1.9,   0.00,   0.00, 1003.4,    0.1, -999.0
11-11-2023, 00:16:01,    265,    0.0,    1.9,   0.00,   0.00, 1003.4,    0.3, -999.0
11-11-2023, 00:16:10,    266,    0.0,    2.0,   0.00,   0.00, 1003.4,    0.4, -999.0
11-11-2023, 00:16:21,    266,    0.0,    1.9,   0.00,   0.00, 1003.3,    0.1, -999.0
11-11-2023, 00:16:31,    265,    0.0,    1.9,   0.00,   0.00, 1003.4,    0.0, -999.0
11-11-2023, 00:16:40,    265,    0.0,    1.9,   0.00,   0.00, 1003.3,    0.4, -999.0
11-11-2023, 00:16:50,    266,    0.0,    1.9,   0.00,   0.00, 1003.4,    0.0, -999.0
11-11-2023, 00:17:01,    265,    0.0,    1.9,   0.00,   0.00, 1003.3,    0.2, -999.0
11-11-2023, 00:17:10,    265,    0.0,    1.9,   0.00,   0.00, 1003.3,    0.5, -999.0
11-11-2023, 00:17:20,    265,    0.0,    1.9,   0.00,   0.00, 1003.4,    0.0, -999.0
11-11-2023, 00:17:30,    266,    0.0,    1.9,   0.00,   0.00, 1003.4,    0.0, -999.0
11-11-2023, 00:17:41,    264,    0.0,    2.0,   0.00,   0.00, 1003.4,    0.0, -999.0
11-11-2023, 00:17:50,    264,    0.0,    1.9,   0.00,   0.00, 1003.3,    0.2, -999.0
11-11-2023, 00:18:00,    264,    0.0,    2.0,   0.00,   0.00, 1003.4,    0.3, -999.0
11-11-2023, 00:18:10,    264,    0.0,    2.0,   0.00,   0.00, 1003.4,    0.4, -999.0
11-11-2023, 00:18:20,    264,    0.0,    2.0,   0.00,   0.00, 1003.4,    0.4, -999.0
11-11-2023, 00:18:30,    264,    0.0,    2.0,   0.00,   0.00, 1003.4,    0.1, -999.0
11-11-2023, 00:18:40,    264,    0.0,    1.9,   0.00,   0.00, 1003.4,    0.2, -999.0
11-11-2023, 00:18:50,    264,    0.0,    2.0,   0.00,   0.00, 1003.4,    0.2, -999.0
11-11-2023, 00:19:00,    264,    0.0,    2.0,   0.00,   0.00, 1003.4,    0.3, -999.0
11-11-2023, 00:19:10,    264,    0.0,    1.9,   0.00,   0.00, 1003.4,    0.1, -999.0
11-11-2023, 00:19:20,    264,    0.0,    1.9,   0.00,   0.00, 1003.4,    0.4, -999.0
11-11-2023, 00:19:30,    264,    0.0,    2.0,   0.00,   0.00, 1003.3,    0.2, -999.0
11-11-2023, 00:19:40,    265,    0.0,    1.9,   0.00,   0.00, 1003.4,    0.3, -999.0
11-11-2023, 00:19:50,    264,    0.0,    1.9,   0.00,   0.00, 1003.3,    0.4, -999.0
11-11-2023, 00:20:00,    264,    0.0,    1.9,   0.00,   0.00, 1003.4,    0.2, -999.0
11-11-2023, 00:20:10,    264,    0.0,    1.9,   0.00,   0.00, 1003.3,    0.4, -999.0
11-11-2023, 00:20:20,    264,    0.0,    1.9,   0.00,   0.00, 1003.4,    0.3, -999.0
11-11-2023, 00:20:30,    264,    0.0,    1.9,   0.00,   0.00, 1003.3,    0.3, -999.0
11-11-2023, 00:20:40,    264,    0.0,    1.9,   0.00,   0.00, 1003.3,    0.4, -999.0
11-11-2023, 00:20:50,    264,    0.0,    2.0,   0.00,   0.00, 1003.4,    0.1, -999.0
11-11-2023, 00:21:00,    264,    0.0,    1.9,   0.00,   0.00, 1003.3,    0.4, -999.0
11-11-2023, 00:21:10,    264,    0.0,    1.9,   0.00,   0.00, 1003.4,    0.3, -999.0
11-11-2023, 00:21:20,    264,    0.0,    1.9,   0.00,   0.00, 1003.4,    0.2, -999.0
11-11-2023, 00:21:30,    264,    0.0,    1.9,   0.00,   0.00, 1003.4,    0.2, -999.0
11-11-2023, 00:21:40,    264,    0.0,    2.0,   0.00,   0.00, 1003.3,    0.3, -999.0
11-11-2023, 00:21:50,    264,    0.0,    2.0,   0.00,   0.00, 1003.3,    0.3, -999.0
11-11-2023, 00:22:00,    263,    0.0,    1.9,   0.00,   0.00, 1003.3,    0.4, -999.0
11-11-2023, 00:22:10,    264,    0.0,    2.0,   0.00,   0.00, 1003.3,    0.3, -999.0
11-11-2023, 00:22:20,    263,    0.0,    2.0,   0.00,   0.00, 1003.4,    0.3, -999.0
11-11-2023, 00:22:30,    263,    0.0,    2.0,   0.00,   0.00, 1003.4,    0.2, -999.0
11-11-2023, 00:22:39,    263,    0.0,    1.9,   0.00,   0.00, 1003.4,    0.2, -999.0
11-11-2023, 00:22:50,    262,    0.0,    2.0,   0.00,   0.00, 1003.3,    0.4, -999.0
11-11-2023, 00:23:00,    263,    0.0,    2.0,   0.00,   0.00, 1003.4,    0.4, -999.0
11-11-2023, 00:23:09,    263,    0.0,    1.9,   0.00,   0.00, 1003.3,    0.6, -999.0
11-11-2023, 00:23:19,    262,    0.0,    2.0,   0.00,   0.00, 1003.3,    0.0, -999.0
11-11-2023, 00:23:30,    262,    0.0,    2.0,   0.00,   0.00, 1003.3,    0.4, -999.0
11-11-2023, 00:23:39,    220,    0.3,    2.0,   0.00,   0.00, 1003.4,    0.2, -999.0
11-11-2023, 00:23:49,    220,    0.8,    2.1,   0.00,   0.00, 1003.5,    0.4, -999.0
11-11-2023, 00:23:59,    219,    0.2,    2.1,   0.00,   0.00, 1003.4,    0.4, -999.0
11-11-2023, 00:24:09,    220,    0.0,    2.0,   0.00,   0.00, 1003.3,    0.1, -999.0
11-11-2023, 00:24:19,    220,    0.0,    2.0,   0.00,   0.00, 1003.3,    0.2, -999.0
11-11-2023, 00:24:29,    220,    0.0,    2.0,   0.00,   0.00, 1003.3,    0.2, -999.0
11-11-2023, 00:24:40,    220,    0.0,    1.9,   0.00,   0.00, 1003.3,    0.0, -999.0
11-11-2023, 00:24:49,    220,    0.0,    2.0,   0.00,   0.00, 1003.3,    0.5, -999.0
11-11-2023, 00:24:59,    261,    0.0,    2.0,   0.00,   0.00, 1003.3,    0.4, -999.0
11-11-2023, 00:25:09,    262,    1.1,    2.0,   0.00,   0.00, 1003.5,    0.3, -999.0
11-11-2023, 00:25:19,    263,    0.5,    2.1,   0.00,   0.00, 1003.5,    0.3, -999.0
11-11-2023, 00:25:29,    264,    0.3,    2.0,   0.00,   0.00, 1003.4,    0.4, -999.0
11-11-2023, 00:25:39,    263,    0.0,    2.0,   0.00,   0.00, 1003.3,    0.2, -999.0
11-11-2023, 00:25:49,    263,    0.0,    2.0,   0.00,   0.00, 1003.3,    0.2, -999.0
11-11-2023, 00:25:59,    262,    0.0,    2.0,   0.00,   0.00, 1003.3,    0.3, -999.0
11-11-2023, 00:26:09,    262,    0.0,    1.9,   0.00,   0.00, 1003.3,    0.1, -999.0
11-11-2023, 00:26:19,    263,    0.0,    2.0,   0.00,   0.00, 1003.3,    0.2, -999.0
11-11-2023, 00:26:29,    263,    0.0,    2.0,   0.00,   0.00, 1003.3,    0.5, -999.0
11-11-2023, 00:26:39,    261,    0.0,    2.1,   0.00,   0.00, 1003.3,    0.4, -999.0
11-11-2023, 00:26:49,    261,    0.0,    2.0,   0.00,   0.00, 1003.3,    0.2, -999.0
11-11-2023, 00:26:59,    263,    0.0,    2.0,   0.00,   0.00, 1003.3,    0.3, -999.0
11-11-2023, 00:27:09,    264,    0.0,    2.0,   0.00,   0.00, 1003.3,    0.3, -999.0
11-11-2023, 00:27:19,    265,    0.0,    2.0,   0.00,   0.00, 1003.3,    0.3, -999.0
11-11-2023, 00:27:29,    264,    0.0,    2.0,   0.00,   0.00, 1003.3,    0.3, -999.0
11-11-2023, 00:27:39,    273,    0.5,    1.8,   0.00,   0.00, 1003.4,    0.3, -999.0
11-11-2023, 00:27:49,    271,    0.9,    2.1,   0.00,   0.00, 1003.5,    0.4, -999.0
11-11-2023, 00:27:59,    270,    0.7,    2.1,   0.00,   0.00, 1003.4,    0.4, -999.0
11-11-2023, 00:28:09,    270,    0.6,    2.1,   0.00,   0.00, 1003.4,    0.2, -999.0
11-11-2023, 00:28:19,    271,    0.1,    2.1,   0.00,   0.00, 1003.4,    0.3, -999.0
11-11-2023, 00:28:29,    270,    0.2,    2.1,   0.00,   0.00, 1003.5,    0.2, -999.0
11-11-2023, 00:28:39,    270,    0.0,    2.0,   0.00,   0.00, 1003.3,    0.4, -999.0
11-11-2023, 00:28:49,    271,    0.0,    2.0,   0.00,   0.00, 1003.3,    0.2, -999.0
11-11-2023, 00:28:58,    271,    0.1,    2.1,   0.00,   0.00, 1003.3,    0.4, -999.0
11-11-2023, 00:29:09,    271,    0.0,    2.1,   0.00,   0.00, 1003.3,    0.2, -999.0
11-11-2023, 00:29:19,    271,    0.0,    2.0,   0.00,   0.00, 1003.3,    0.2, -999.0
11-11-2023, 00:29:29,    260,    0.0,    2.0,   0.00,   0.00, 1003.3,    0.3, -999.0
11-11-2023, 00:29:38,    257,    0.6,    2.1,   0.00,   0.00, 1003.4,    0.4, -999.0
11-11-2023, 00:29:49,    256,    0.0,    2.1,   0.00,   0.00, 1003.3,    0.2, -999.0
11-11-2023, 00:29:59,    209,    0.2,    2.1,   0.00,   0.00, 1003.3,    0.4, -999.0
11-11-2023, 00:30:08,    209,    0.0,    2.1,   0.00,   0.00, 1003.3,    0.4, -999.0
11-11-2023, 00:30:18,    209,    0.0,    2.1,   0.00,   0.00, 1003.3,    0.3, -999.0
11-11-2023, 00:30:29,    209,    0.0,    2.1,   0.00,   0.00, 1003.3,    0.4, -999.0
11-11-2023, 00:30:38,    209,    0.0,    2.0,   0.00,   0.00, 1003.3,    0.3, -999.0
11-11-2023, 00:30:48,    209,    0.0,    2.0,   0.00,   0.00, 1003.3,    0.1, -999.0
11-11-2023, 00:30:58,    251,    0.1,    2.1,   0.00,   0.00, 1003.4,    0.2, -999.0
11-11-2023, 00:31:08,    250,    0.0,    2.1,   0.00,   0.00, 1003.3,    0.3, -999.0
11-11-2023, 00:31:18,    250,    0.0,    2.0,   0.00,   0.00, 1003.3,    0.2, -999.0
11-11-2023, 00:31:28,    251,    0.0,    2.0,   0.00,   0.00, 1003.3,    0.2, -999.0
11-11-2023, 00:31:38,    251,    0.0,    2.0,   0.00,   0.00, 1003.3,    0.2, -999.0
11-11-2023, 00:31:48,    250,    0.0,    2.0,   0.00,   0.00, 1003.3,    0.3, -999.0
11-11-2023, 00:31:58,    250,    0.0,    2.0,   0.00,   0.00, 1003.3,    0.3, -999.0
11-11-2023, 00:32:08,    250,    0.0,    2.1,   0.00,   0.00, 1003.3,    0.1, -999.0
11-11-2023, 00:32:18,    250,    0.0,    2.0,   0.00,   0.00, 1003.3,    0.2, -999.0
11-11-2023, 00:32:28,    250,    0.0,    2.0,   0.00,   0.00, 1003.3,    0.4, -999.0
11-11-2023, 00:32:38,    250,    0.0,    2.0,   0.00,   0.00, 1003.3,    0.3, -999.0
11-11-2023, 00:32:48,    251,    0.0,    2.0,   0.00,   0.00, 1003.2,    0.3, -999.0
11-11-2023, 00:32:58,    251,    0.0,    2.0,   0.00,   0.00, 1003.3,    0.3, -999.0
11-11-2023, 00:33:08,    250,    0.0,    2.0,   0.00,   0.00, 1003.3,    0.2, -999.0
11-11-2023, 00:33:18,    250,    0.0,    2.1,   0.00,   0.00, 1003.4,    0.3, -999.0
11-11-2023, 00:33:28,    250,    0.0,    2.1,   0.00,   0.00, 1003.3,    0.3, -999.0
11-11-2023, 00:33:38,    255,    0.2,    2.0,   0.00,   0.00, 1003.4,    0.2, -999.0
11-11-2023, 00:33:48,    254,    0.3,    2.1,   0.00,   0.00, 1003.4,    0.1, -999.0
11-11-2023, 00:33:58,    254,    0.0,    2.1,   0.00,   0.00, 1003.3,    0.3, -999.0
11-11-2023, 00:34:08,    253,    0.2,    2.0,   0.00,   0.00, 1003.4,    0.1, -999.0
11-11-2023, 00:34:18,    252,    0.0,    2.1,   0.00,   0.00, 1003.3,    0.4, -999.0
11-11-2023, 00:34:28,    252,    0.0,    2.0,   0.00,   0.00, 1003.3,    0.3, -999.0
11-11-2023, 00:34:38,    252,    0.0,    2.0,   0.00,   0.00, 1003.3,    0.4, -999.0
11-11-2023, 00:34:48,    252,    0.0,    2.0,   0.00,   0.00, 1003.3,    0.3, -999.0
11-11-2023, 00:34:58,    252,    0.0,    2.1,   0.00,   0.00, 1003.3,    0.2, -999.0
11-11-2023, 00:35:08,    252,    0.0,    2.1,   0.00,   0.00, 1003.4,    0.2, -999.0
11-11-2023, 00:35:18,    251,    0.0,    2.1,   0.00,   0.00, 1003.4,    0.2, -999.0
11-11-2023, 00:35:27,    253,    0.0,    2.1,   0.00,   0.00, 1003.4,    0.4, -999.0
11-11-2023, 00:35:38,    252,    0.0,    2.1,   0.00,   0.00, 1003.4,    0.2, -999.0
11-11-2023, 00:35:48,    253,    0.2,    2.1,   0.00,   0.00, 1003.4,    0.2, -999.0
11-11-2023, 00:35:58,    252,    0.2,    2.1,   0.00,   0.00, 1003.4,    0.2, -999.0
11-11-2023, 00:36:07,    252,    0.0,    2.1,   0.00,   0.00, 1003.4,    0.3, -999.0
11-11-2023, 00:36:18,    252,    0.0,    2.1,   0.00,   0.00, 1003.3,    0.3, -999.0
11-11-2023, 00:36:28,    252,    0.0,    2.1,   0.00,   0.00, 1003.3,    0.2, -999.0
11-11-2023, 00:36:37,    252,    0.0,    2.1,   0.00,   0.00, 1003.3,    0.2, -999.0
11-11-2023, 00:36:47,    252,    0.0,    2.0,   0.00,   0.00, 1003.3,    0.3, -999.0
11-11-2023, 00:36:58,    252,    0.0,    2.0,   0.00,   0.00, 1003.3,    0.2, -999.0
11-11-2023, 00:37:07,    252,    0.0,    2.0,   0.00,   0.00, 1003.3,    0.4, -999.0
11-11-2023, 00:37:17,    252,    0.0,    1.9,   0.00,   0.00, 1003.3,    0.2, -999.0
11-11-2023, 00:37:27,    252,    0.0,    2.0,   0.00,   0.00, 1003.3,    0.2, -999.0
11-11-2023, 00:37:37,    252,    0.0,    1.9,   0.00,   0.00, 1003.3,    0.2, -999.0
11-11-2023, 00:37:47,    252,    0.0,    2.1,   0.00,   0.00, 1003.3,    0.2, -999.0
11-11-2023, 00:37:57,    252,    0.0,    2.1,   0.00,   0.00, 1003.3,    0.2, -999.0
11-11-2023, 00:38:08,    252,    0.0,    2.0,   0.00,   0.00, 1003.3,    0.2, -999.0
11-11-2023, 00:38:17,    252,    0.0,    2.0,   0.00,   0.00, 1003.3,    0.3, -999.0
11-11-2023, 00:38:27,    252,    0.0,    2.0,   0.00,   0.00, 1003.3,    0.2, -999.0
11-11-2023, 00:38:37,    252,    0.0,    2.0,   0.00,   0.00, 1003.3,    0.3, -999.0
11-11-2023, 00:38:47,    252,    0.0,    2.0,   0.00,   0.00, 1003.3,    0.2, -999.0
11-11-2023, 00:38:57,    253,    0.0,    2.0,   0.00,   0.00, 1003.3,    0.3, -999.0
11-11-2023, 00:39:07,    252,    0.0,    2.0,   0.00,   0.00, 1003.3,    0.3, -999.0
11-11-2023, 00:39:17,    252,    0.0,    2.0,   0.00,   0.00, 1003.3,    0.2, -999.0
11-11-2023, 00:39:27,    253,    0.0,    2.0,   0.00,   0.00, 1003.3,    0.4, -999.0
11-11-2023, 00:39:37,    253,    0.0,    2.0,   0.00,   0.00, 1003.3,    0.2, -999.0
11-11-2023, 00:39:47,    252,    0.0,    2.0,   0.00,   0.00, 1003.3,    0.3, -999.0
11-11-2023, 00:39:57,    253,    0.0,    1.9,   0.00,   0.00, 1003.2,    0.3, -999.0
11-11-2023, 00:40:07,    253,    0.0,    1.9,   0.00,   0.00, 1003.3,    0.3, -999.0
11-11-2023, 00:40:17,    253,    0.0,    1.9,   0.00,   0.00, 1003.3,    0.3, -999.0
11-11-2023, 00:40:27,    253,    0.0,    1.9,   0.00,   0.00, 1003.3,    0.2, -999.0
11-11-2023, 00:40:37,    253,    0.0,    1.9,   0.00,   0.00, 1003.3,    0.2, -999.0
11-11-2023, 00:40:47,    253,    0.0,    1.9,   0.00,   0.00, 1003.3,    0.2, -999.0
11-11-2023, 00:40:57,    253,    0.0,    1.9,   0.00,   0.00, 1003.3,    0.1, -999.0
11-11-2023, 00:41:07,    253,    0.0,    1.9,   0.00,   0.00, 1003.3,    0.4, -999.0
11-11-2023, 00:41:19,    253,    0.0,    1.9,   0.00,   0.00, 1003.3,    0.3, -999.0
11-11-2023, 00:41:27,    253,    0.1,    2.0,   0.00,   0.00, 1003.3,    0.3, -999.0
11-11-2023, 00:41:37,    253,    0.2,    2.1,   0.00,   0.00, 1003.4,    0.3, -999.0
11-11-2023, 00:41:47,    253,    0.0,    2.0,   0.00,   0.00, 1003.3,    0.2, -999.0
11-11-2023, 00:41:57,    253,    0.0,    2.0,   0.00,   0.00, 1003.3,    0.1, -999.0
11-11-2023, 00:42:07,    253,    0.0,    2.0,   0.00,   0.00, 1003.3,    0.2, -999.0
11-11-2023, 00:42:17,    253,    0.0,    2.0,   0.00,   0.00, 1003.3,    0.2, -999.0
11-11-2023, 00:42:26,    253,    0.0,    2.1,   0.00,   0.00, 1003.3,    0.2, -999.0
11-11-2023, 00:42:37,    252,    0.0,    2.0,   0.00,   0.00, 1003.3,    0.1, -999.0
11-11-2023, 00:42:47,    253,    0.0,    1.9,   0.00,   0.00, 1003.3,    0.2, -999.0
11-11-2023, 00:42:57,    253,    0.0,    2.0,   0.00,   0.00, 1003.3,    0.4, -999.0
11-11-2023, 00:43:06,    253,    0.0,    2.0,   0.00,   0.00, 1003.3,    0.3, -999.0
11-11-2023, 00:43:17,    254,    0.0,    2.0,   0.00,   0.00, 1003.3,    0.2, -999.0
11-11-2023, 00:43:27,    258,    0.9,    2.1,   0.00,   0.00, 1003.4,    0.3, -999.0
11-11-2023, 00:43:36,    258,    0.2,    2.1,   0.00,   0.00, 1003.4,    0.4, -999.0
11-11-2023, 00:43:46,    257,    0.0,    2.0,   0.00,   0.00, 1003.3,    0.2, -999.0
11-11-2023, 00:43:57,    257,    0.0,    2.0,   0.00,   0.00, 1003.2,    0.3, -999.0
11-11-2023, 00:44:06,    257,    0.0,    2.1,   0.00,   0.00, 1003.3,    0.3, -999.0
11-11-2023, 00:44:16,    241,    0.3,    2.0,   0.00,   0.00, 1003.3,    0.2, -999.0
11-11-2023, 00:44:26,    240,    0.0,    2.0,   0.00,   0.00, 1003.3,    0.3, -999.0
11-11-2023, 00:44:36,    240,    0.0,    2.0,   0.00,   0.00, 1003.3,    0.2, -999.0
11-11-2023, 00:44:46,    241,    0.1,    2.1,   0.00,   0.00, 1003.3,    0.2, -999.0
11-11-2023, 00:44:56,    263,    0.6,    2.0,   0.00,   0.00, 1003.4,    0.3, -999.0
11-11-2023, 00:45:06,    263,    0.0,    2.0,   0.00,   0.00, 1003.2,    0.3, -999.0
11-11-2023, 00:45:16,    263,    0.0,    2.0,   0.00,   0.00, 1003.2,    0.2, -999.0
11-11-2023, 00:45:26,    262,    0.0,    2.0,   0.00,   0.00, 1003.2,    0.5, -999.0
11-11-2023, 00:45:36,    262,    0.0,    2.0,   0.00,   0.00, 1003.2,    0.2, -999.0
11-11-2023, 00:45:46,    262,    0.3,    2.1,   0.00,   0.00, 1003.3,    0.4, -999.0
11-11-2023, 00:45:56,    262,    0.1,    2.1,   0.00,   0.00, 1003.3,    0.3, -999.0
11-11-2023, 00:46:06,    263,    0.4,    2.1,   0.00,   0.00, 1003.3,    0.4, -999.0
11-11-2023, 00:46:16,    264,    0.6,    2.1,   0.00,   0.00, 1003.4,    0.3, -999.0
11-11-2023, 00:46:26,    265,    0.0,    2.0,   0.00,   0.00, 1003.2,    0.5, -999.0
11-11-2023, 00:46:36,    264,    0.0,    2.0,   0.00,   0.00, 1003.2,    0.3, -999.0
11-11-2023, 00:46:46,    264,    0.0,    2.0,   0.00,   0.00, 1003.3,    0.2, -999.0